Weather in Pokanayevka

Russia / Krasnoyarsk Krai     56°30′53″N   97°39′35″E
temp.,
°C
wind,
m/s
gust,
m/s
humid.,
%
clouds,
%
prec.,
mm/h
press.,
hPa
HPBL,
m
11 may, tue
tue1101:00+6w11715 0.0 102010
04:00+4wsw117985 0.0 102010
07:00+8wsw116516 0.0 1020153
10:00+15wnw124360 0.0 1018752
13:00+17n2332100 0.0 10172709
16:00+17n343196 0.0 10152424
19:00+11ne576487 0.1 1017989
22:00+6ne49755 0.0 1020577
12 may, wed
wed1201:00+3nne27814 0.0 1021227
04:00+1nne27880 0.0 1021198
07:00+4ene35665 0.0 1021416
10:00+8ne34425 0.0 10201545
13:00+11nne34325 0.0 10191996
16:00+12nne34295 0.0 10182262
19:00+10nne23395 0.0 1018114
22:00+5ne11535 0.0 101910
13 may, thu
thu1301:00+3e11594 0.0 102010
04:00+1e11610 0.0 102010
07:00+6e12481 0.0 1021217
10:00+11e23320 0.0 10191686
13:00+13ese22275 0.0 10181906
16:00+14se22255 0.0 10161941
19:00+12se12395 0.0 101634
22:00+6se22558 0.0 101619
14 may, fri
fri1401:00+4ese225855 0.0 101526
04:00+3se2364100 0.0 101360
07:00+6sse2653100 0.0 1013264
10:00+12s243834 0.0 1011693
13:00+17sw3527100 0.0 10082003
16:00+18wsw473099 0.0 10072663
19:00+11w5879100 0.6 10101094
22:00+8wnw41084100 1.3 1013692
15 may, sat
sat1501:00+5wnw511835 1.8 1015789
04:00+2w4108869 0.0 1017652
07:00+4wsw41080100 0.0 1017624
10:00+7wsw61161100 0.0 10151520
13:00+4wsw61796100 2.6 10141173
16:00+5wsw71592100 1.4 10121208
19:00+7w61286100 1.7 10131224
22:00+6nw5138470 0.7 10151214